| time (UTC) | temp F | wind direction | speed MPH | gust MPH | rain 1hr in | rain 24hr in | rain mn in | humidity % | barometer mb |
| 20260506050524 | 39 | 292 | 8.0 | 11.0 | 0.00 | 0.00 | 0.00 | 69 | 1008.5 |
| 20260506044724 | 38 | 251 | 8.0 | 11.0 | 0.00 | 0.00 | 0.00 | 72 | 1008.5 |
| 20260506043824 | 38 | 273 | 7.0 | 9.0 | 0.00 | 0.00 | 0.00 | 72 | 1008.3 |
| 20260506042923 | 37 | 265 | 7.0 | 11.0 | 0.00 | 0.00 | 0.00 | 73 | 1008.2 |
| 20260506042024 | 37 | 261 | 6.0 | 11.0 | 0.00 | 0.00 | 0.00 | 73 | 1008.1 |
| 20260506041336 | 37 | 264 | 7.0 | 9.0 | 0.00 | 0.00 | 0.00 | 74 | 1008.2 |
| 20260506040224 | 36 | 267 | 7.0 | 11.0 | 0.00 | 0.00 | 0.00 | 75 | 1007.9 |
| 20260506035324 | 36 | 283 | 6.0 | 8.0 | 0.00 | 0.00 | 0.00 | 75 | 1007.9 |
| 20260506034424 | 36 | 265 | 4.0 | 6.0 | 0.00 | 0.00 | 0.00 | 75 | 1007.8 |
| 20260506033524 | 36 | 261 | 5.0 | 9.0 | 0.00 | 0.00 | 0.00 | 76 | 1007.7 |
| 20260506032624 | 35 | 260 | 6.0 | 8.0 | 0.00 | 0.00 | 0.00 | 77 | 1007.6 |
| 20260506031723 | 35 | 258 | 4.0 | 7.0 | 0.00 | 0.00 | 0.00 | 78 | 1007.6 |
| 20260506030824 | 34 | 265 | 5.0 | 7.0 | 0.00 | 0.00 | 0.00 | 79 | 1007.5 |
| 20260506025924 | 34 | 260 | 4.0 | 7.0 | 0.00 | 0.00 | 0.00 | 79 | 1007.2 |
| 20260506025024 | 34 | 262 | 4.0 | 7.0 | 0.00 | 0.00 | 0.00 | 79 | 1007.5 |
| 20260506024124 | 34 | 266 | 4.0 | 7.0 | 0.00 | 0.00 | 0.00 | 80 | 1007.3 |
| 20260506023224 | 34 | 259 | 4.0 | 6.0 | 0.00 | 0.00 | 0.00 | 81 | 1007.4 |
| 20260506022534 | 34 | 252 | 3.0 | 6.0 | 0.00 | 0.00 | 0.00 | 81 | 1007.4 |
| 20260506021424 | 34 | 255 | 4.0 | 8.0 | 0.00 | 0.00 | 0.00 | 81 | 1007.1 |
| 20260506020524 | 33 | 259 | 3.0 | 7.0 | 0.00 | 0.00 | 0.00 | 81 | 1007.0 |
| 20260506015624 | 34 | 260 | 4.0 | 4.0 | 0.00 | 0.00 | 0.00 | 81 | 1007.1 |
| 20260506014724 | 34 | 258 | 4.0 | 6.0 | 0.00 | 0.00 | 0.00 | 81 | 1006.8 |
| 20260506013824 | 34 | 257 | 4.0 | 6.0 | 0.00 | 0.00 | 0.00 | 81 | 1007.0 |
| 20260506012924 | 34 | 258 | 4.0 | 6.0 | 0.00 | 0.00 | 0.00 | 81 | 1006.8 |
| 20260506012236 | 34 | 257 | 4.0 | 6.0 | 0.00 | 0.00 | 0.00 | 81 | 1006.8 |
| 20260506011124 | 34 | 263 | 4.0 | 6.0 | 0.00 | 0.00 | 0.00 | 79 | 1006.6 |
| 20260506010224 | 34 | 257 | 4.0 | 8.0 | 0.00 | 0.00 | 0.00 | 79 | 1006.4 |
| 20260506005324 | 34 | 260 | 3.0 | 8.0 | 0.00 | 0.00 | 0.00 | 79 | 1006.5 |
| 20260506004424 | 34 | 265 | 3.0 | 4.0 | 0.00 | 0.00 | 0.00 | 78 | 1006.4 |
| 20260506003523 | 34 | 254 | 2.0 | 4.0 | 0.00 | 0.00 | 0.00 | 78 | 1006.3 |
| 20260506002624 | 34 | 243 | 1.0 | 4.0 | 0.00 | 0.00 | 0.00 | 77 | 1006.3 |
| 20260506001724 | 35 | 244 | 1.0 | 4.0 | 0.00 | 0.00 | 0.00 | 76 | 1006.3 |
| 20260506000824 | 35 | 230 | 2.0 | 2.0 | 0.00 | 0.00 | 0.00 | 73 | 1006.0 |
| 20260505235924 | 36 | 240 | 1.0 | 4.0 | 0.00 | 0.00 | 0.00 | 71 | 1006.1 |
| 20260505235023 | 37 | 256 | 3.0 | 6.0 | 0.00 | 0.00 | 0.00 | 68 | 1005.8 |
| 20260505234123 | 37 | 258 | 4.0 | 6.0 | 0.00 | 0.00 | 0.00 | 67 | 1005.8 |
| 20260505233224 | 38 | 286 | 5.0 | 8.0 | 0.00 | 0.00 | 0.00 | 67 | 1005.9 |
| 20260505232324 | 38 | 272 | 5.0 | 8.0 | 0.00 | 0.00 | 0.00 | 67 | 1005.7 |
| 20260505231424 | 37 | 257 | 3.0 | 6.0 | 0.00 | 0.00 | 0.00 | 69 | 1005.6 |
| 20260505230736 | 37 | 265 | 4.0 | 6.0 | 0.00 | 0.00 | 0.00 | 71 | 1005.6 |
| 20260505225623 | 36 | 259 | 6.0 | 9.0 | 0.00 | 0.00 | 0.00 | 74 | 1005.8 |
| 20260505224723 | 36 | 263 | 5.0 | 7.0 | 0.00 | 0.00 | 0.00 | 74 | 1005.7 |
| 20260505223824 | 36 | 259 | 4.0 | 6.0 | 0.00 | 0.00 | 0.00 | 76 | 1005.8 |
| 20260505222924 | 36 | 256 | 5.0 | 7.0 | 0.00 | 0.00 | 0.00 | 76 | 1005.6 |
| 20260505222024 | 36 | 241 | 2.0 | 4.0 | 0.00 | 0.00 | 0.00 | 77 | 1005.8 |
| 20260505221124 | 36 | 239 | 2.0 | 4.0 | 0.00 | 0.00 | 0.00 | 76 | 1005.6 |
| 20260505220437 | 36 | 226 | 2.0 | 4.0 | 0.00 | 0.00 | 0.00 | 75 | 1005.5 |
| 20260505215323 | 36 | 219 | 2.0 | 4.0 | 0.00 | 0.00 | 0.00 | 74 | 1005.6 |
| 20260505214423 | 37 | 224 | 2.0 | 4.0 | 0.00 | 0.00 | 0.00 | 73 | 1005.6 |
| 20260505213524 | 37 | 221 | 2.0 | 4.0 | 0.00 | 0.00 | 0.00 | 73 | 1005.1 |
| 20260505212836 | 37 | 227 | 2.0 | 4.0 | 0.00 | 0.00 | 0.00 | 72 | 1005.2 |
| 20260505211934 | 37 | 245 | 3.0 | 4.0 | 0.00 | 0.00 | 0.00 | 71 | 1005.2 |
| 20260505210824 | 38 | 220 | 3.0 | 4.0 | 0.00 | 0.00 | 0.00 | 71 | 1005.3 |
| 20260505205924 | 38 | 236 | 3.0 | 4.0 | 0.00 | 0.00 | 0.00 | 70 | 1005.3 |
| 20260505205024 | 38 | 238 | 3.0 | 4.0 | 0.00 | 0.00 | 0.00 | 69 | 1005.2 |
| 20260505204123 | 38 | 247 | 3.0 | 6.0 | 0.00 | 0.00 | 0.00 | 69 | 1005.2 |
| 20260505203224 | 38 | 232 | 4.0 | 7.0 | 0.00 | 0.00 | 0.00 | 67 | 1005.2 |
| 20260505202323 | 38 | 217 | 3.0 | 4.0 | 0.00 | 0.00 | 0.00 | 67 | 1005.1 |
| 20260505201424 | 39 | 239 | 3.0 | 4.0 | 0.00 | 0.00 | 0.00 | 65 | 1004.9 |
| 20260505200524 | 39 | 226 | 1.0 | 2.0 | 0.00 | 0.00 | 0.00 | 63 | 1005.1 |
| 20260505195624 | 39 | 226 | 1.0 | 4.0 | 0.00 | 0.00 | 0.00 | 61 | 1004.8 |
| 20260505194723 | 40 | 225 | 1.0 | 4.0 | 0.00 | 0.00 | 0.00 | 60 | 1004.8 |
| 20260505193823 | 40 | 242 | 2.0 | 4.0 | 0.00 | 0.00 | 0.00 | 59 | 1005.1 |
| 20260505192924 | 41 | 255 | 3.0 | 6.0 | 0.00 | 0.00 | 0.00 | 57 | 1005.0 |
| 20260505192024 | 41 | 254 | 5.0 | 11.0 | 0.00 | 0.00 | 0.00 | 55 | 1004.9 |
| 20260505191124 | 42 | 265 | 7.0 | 11.0 | 0.00 | 0.00 | 0.00 | 54 | 1004.8 |
| 20260505190224 | 42 | 242 | 4.0 | 7.0 | 0.00 | 0.00 | 0.00 | 54 | 1004.8 |
| 20260505185324 | 43 | 260 | 5.0 | 7.0 | 0.00 | 0.00 | 0.00 | 52 | 1004.7 |
| 20260505184424 | 43 | 258 | 5.0 | 7.0 | 0.00 | 0.01 | 0.00 | 51 | 1004.6 |
| 20260505183523 | 44 | 247 | 5.0 | 8.0 | 0.00 | 0.02 | 0.00 | 50 | 1004.7 |
| 20260505182624 | 44 | 255 | 6.0 | 8.0 | 0.00 | 0.02 | 0.00 | 49 | 1004.7 |
| 20260505181724 | 45 | 275 | 6.0 | 8.0 | 0.00 | 0.02 | 0.00 | 47 | 1004.6 |
| 20260505180824 | 45 | 276 | 5.0 | 8.0 | 0.00 | 0.02 | 0.00 | 47 | 1004.7 |
| 20260505175923 | 46 | 275 | 6.0 | 8.0 | 0.00 | 0.02 | 0.00 | 46 | 1004.6 |
| 20260505175238 | 46 | 272 | 10.0 | 14.0 | 0.00 | 0.02 | 0.00 | 45 | 1004.4 |
| 20260505174124 | 46 | 274 | 7.0 | 13.0 | 0.00 | 0.02 | 0.00 | 45 | 1004.2 |
| 20260505173224 | 46 | 282 | 11.0 | 15.0 | 0.00 | 0.02 | 0.00 | 44 | 1004.2 |
| 20260505172323 | 47 | 288 | 11.0 | 15.0 | 0.00 | 0.02 | 0.00 | 43 | 1004.0 |
| 20260505171424 | 47 | 273 | 8.0 | 13.0 | 0.00 | 0.02 | 0.00 | 42 | 1004.2 |
| 20260505170524 | 48 | 289 | 9.0 | 13.0 | 0.00 | 0.02 | 0.00 | 40 | 1004.0 |
| 20260505165624 | 48 | 257 | 9.0 | 13.0 | 0.00 | 0.02 | 0.00 | 40 | 1004.0 |
| 20260505164934 | 48 | 277 | 10.0 | 13.0 | 0.00 | 0.02 | 0.00 | 41 | 1003.9 |
| 20260505163823 | 48 | 273 | 11.0 | 21.0 | 0.00 | 0.02 | 0.00 | 39 | 1003.9 |
| 20260505162923 | 49 | 283 | 9.0 | 13.0 | 0.00 | 0.02 | 0.00 | 39 | 1003.9 |
| 20260505162236 | 48 | 282 | 10.0 | 14.0 | 0.00 | 0.02 | 0.00 | 40 | 1003.9 |
| 20260505161123 | 48 | 277 | 11.0 | 16.0 | 0.00 | 0.02 | 0.00 | 38 | 1003.9 |
| 20260505160223 | 49 | 290 | 13.0 | 22.0 | 0.00 | 0.02 | 0.00 | 37 | 1003.7 |
| 20260505152624 | 48 | 292 | 13.0 | 16.0 | 0.00 | 0.02 | 0.00 | 36 | 1003.4 |
| 20260505151724 | 49 | 291 | 13.0 | 16.0 | 0.00 | 0.02 | 0.00 | 35 | 1003.7 |
| 20260505150824 | 49 | 294 | 12.0 | 16.0 | 0.00 | 0.02 | 0.00 | 35 | 1003.6 |
| 20260505140524 | 49 | 307 | 13.0 | 16.0 | 0.00 | 0.02 | 0.00 | 37 | 1002.8 |
| 20260505130223 | 48 | 311 | 13.0 | 18.0 | 0.00 | 0.02 | 0.00 | 40 | 1002.6 |
| 20260505124424 | 49 | 293 | 13.0 | 17.0 | 0.00 | 0.02 | 0.00 | 40 | 1002.5 |
| 20260505123524 | 47 | 299 | 14.0 | 18.0 | 0.00 | 0.02 | 0.00 | 40 | 1002.6 |
| 20260505122623 | 48 | 290 | 11.0 | 14.0 | 0.00 | 0.02 | 0.00 | 41 | 1002.3 |
| 20260505121724 | 47 | 303 | 12.0 | 14.0 | 0.00 | 0.02 | 0.00 | 41 | 1002.4 |
| 20260505120823 | 47 | 329 | 13.0 | 21.0 | 0.00 | 0.02 | 0.00 | 41 | 1002.3 |
| 20260505115924 | 48 | 292 | 13.0 | 17.0 | 0.00 | 0.02 | 0.00 | 40 | 1002.1 |
| 20260505115024 | 49 | 296 | 13.0 | 17.0 | 0.00 | 0.02 | 0.00 | 41 | 1002.0 |
| 20260505114124 | 48 | 289 | 13.0 | 17.0 | 0.00 | 0.02 | 0.00 | 41 | 1001.8 |
| 20260505113224 | 48 | 296 | 15.0 | 20.0 | 0.00 | 0.02 | 0.00 | 39 | 1001.9 |
| 20260505112324 | 47 | 295 | 16.0 | 23.0 | 0.00 | 0.02 | 0.00 | 38 | 1001.7 |
| 20260505111636 | 47 | 288 | 16.0 | 22.0 | 0.00 | 0.02 | 0.00 | 38 | 1001.7 |
| 20260505110524 | 46 | 290 | 15.0 | 22.0 | 0.00 | 0.02 | 0.00 | 39 | 1001.5 |
| 20260505101124 | 46 | 276 | 13.0 | 17.0 | 0.00 | 0.02 | 0.00 | 42 | 1000.8 |
| 20260505100224 | 46 | 285 | 15.0 | 21.0 | 0.00 | 0.02 | 0.00 | 44 | 1001.0 |
| 20260505095324 | 45 | 297 | 17.0 | 22.0 | 0.00 | 0.02 | 0.00 | 45 | 1000.7 |
| 20260505094424 | 46 | 292 | 13.0 | 20.0 | 0.00 | 0.02 | 0.00 | 46 | 1000.5 |
| 20260505093523 | 44 | 299 | 14.0 | 23.0 | 0.00 | 0.02 | 0.00 | 49 | 1000.7 |
| 20260505092623 | 46 | 282 | 11.0 | 16.0 | 0.00 | 0.02 | 0.00 | 49 | 1000.4 |
| 20260505091724 | 45 | 284 | 13.0 | 20.0 | 0.00 | 0.02 | 0.00 | 50 | 1000.5 |
| 20260505090824 | 44 | 297 | 13.0 | 18.0 | 0.00 | 0.02 | 0.00 | 52 | 1000.3 |
| 20260505085924 | 44 | 289 | 12.0 | 15.0 | 0.00 | 0.02 | 0.00 | 56 | 1000.6 |
| 20260505085023 | 46 | 302 | 16.0 | 23.0 | 0.00 | 0.02 | 0.00 | 52 | 1000.4 |
| 20260505084124 | 44 | 291 | 12.0 | 21.0 | 0.00 | 0.02 | 0.00 | 58 | 1000.2 |
| 20260505083433 | 45 | 288 | 11.0 | 14.0 | 0.00 | 0.02 | 0.00 | 57 | 1000.0 |
| 20260505082323 | 44 | 275 | 10.0 | 15.0 | 0.00 | 0.02 | 0.00 | 59 | 1000.2 |
| 20260505081423 | 43 | 284 | 11.0 | 16.0 | 0.00 | 0.02 | 0.00 | 62 | 999.9 |
| 20260505080523 | 43 | 304 | 12.0 | 15.0 | 0.00 | 0.02 | 0.00 | 62 | 999.7 |
| 20260505075624 | 44 | 288 | 12.0 | 16.0 | 0.00 | 0.02 | 0.00 | 60 | 999.6 |
| 20260505074935 | 44 | 279 | 13.0 | 16.0 | 0.00 | 0.02 | 0.00 | 61 | 999.8 |
| 20260505073823 | 43 | 272 | 12.0 | 17.0 | 0.00 | 0.02 | 0.00 | 62 | 999.6 |
| 20260505072923 | 42 | 268 | 9.0 | 17.0 | 0.00 | 0.02 | 0.00 | 66 | 999.5 |
| 20260505072024 | 43 | 297 | 12.0 | 17.0 | 0.00 | 0.02 | 0.00 | 68 | 999.4 |
| 20260505071123 | 42 | 284 | 11.0 | 14.0 | 0.00 | 0.02 | 0.00 | 68 | 999.3 |
| 20260505070224 | 42 | 275 | 8.0 | 14.0 | 0.00 | 0.02 | 0.00 | 68 | 999.4 |
| 20260505065324 | 42 | 269 | 8.0 | 13.0 | 0.00 | 0.02 | 0.00 | 72 | 999.4 |
| 20260505064424 | 40 | 266 | 12.0 | 17.0 | 0.00 | 0.02 | 0.00 | 75 | 999.2 |
| 20260505063523 | 41 | 273 | 9.0 | 17.0 | 0.00 | 0.02 | 0.00 | 76 | 999.2 |
| 20260505062836 | 41 | 257 | 7.0 | 14.0 | 0.00 | 0.02 | 0.00 | 77 | 999.5 |
| 20260505061723 | 40 | 254 | 10.0 | 14.0 | 0.00 | 0.02 | 0.00 | 79 | 999.0 |
| 20260505060824 | 39 | 275 | 7.0 | 11.0 | 0.00 | 0.02 | 0.00 | 80 | 999.1 |
| 20260505055923 | 40 | 268 | 9.0 | 14.0 | 0.00 | 0.02 | 0.00 | 81 | 999.2 |